Time,TemperatureF,DewpointF,PressureIn,WindDirection,WindDirectionDegrees,WindSpeedMPH,WindSpeedGustMPH,Humidity,HourlyPrecipIn,Conditions,Clouds,dailyrainin,SoftwareType,DateUTC
2013-04-19 00:10:00,53.0,43.0,30.04,SSE,167,1.0,3.0,70,0.00,,,0.00,weatherlink.com 1.10,2013-04-19 04:10:00,
2013-04-19 00:26:00,53.0,44.0,30.03,East,90,0.0,3.0,71,0.00,,,0.00,weatherlink.com 1.10,2013-04-19 04:26:00,
2013-04-19 00:41:00,53.1,44.0,30.02,ESE,119,1.0,3.0,72,0.00,,,0.00,weatherlink.com 1.10,2013-04-19 04:41:00,
2013-04-19 00:56:00,53.0,44.0,30.01,SE,130,1.0,3.0,72,0.00,,,0.00,weatherlink.com 1.10,2013-04-19 04:56:00,
2013-04-19 01:11:00,52.9,44.0,30.00,SW,220,3.0,4.0,73,0.00,,,0.00,weatherlink.com 1.10,2013-04-19 05:11:00,
2013-04-19 01:26:00,52.9,45.0,29.99,SSW,196,1.0,4.0,74,0.00,,,0.00,weatherlink.com 1.10,2013-04-19 05:26:00,
2013-04-19 01:41:00,53.0,46.0,29.98,South,180,2.0,4.0,76,0.00,,,0.00,weatherlink.com 1.10,2013-04-19 05:41:00,
2013-04-19 01:56:00,53.2,46.0,29.97,South,169,1.0,6.0,77,0.00,,,0.00,weatherlink.com 1.10,2013-04-19 05:56:00,
2013-04-19 02:11:00,53.3,47.0,29.96,SSW,204,4.0,5.0,78,0.00,,,0.00,weatherlink.com 1.10,2013-04-19 06:11:00,
2013-04-19 02:26:00,53.3,47.0,29.95,ESE,121,3.0,7.0,79,0.00,,,0.00,weatherlink.com 1.10,2013-04-19 06:26:00,
2013-04-19 02:41:00,53.4,47.0,29.95,South,190,4.0,7.0,80,0.00,,,0.00,weatherlink.com 1.10,2013-04-19 06:41:00,
2013-04-19 02:56:00,53.4,48.0,29.95,SE,135,4.0,7.0,81,0.00,,,0.00,weatherlink.com 1.10,2013-04-19 06:56:00,
2013-04-19 03:11:00,53.4,48.0,29.95,SSW,208,1.0,4.0,82,0.00,,,0.00,weatherlink.com 1.10,2013-04-19 07:11:00,
2013-04-19 03:26:00,53.4,48.0,29.94,SSW,206,0.0,3.0,83,0.00,,,0.00,weatherlink.com 1.10,2013-04-19 07:26:00,
2013-04-19 03:41:00,53.5,49.0,29.93,SE,144,1.0,3.0,83,0.00,,,0.00,weatherlink.com 1.10,2013-04-19 07:41:00,
2013-04-19 03:56:00,53.5,49.0,29.93,SW,214,3.0,3.0,84,0.00,,,0.00,weatherlink.com 1.10,2013-04-19 07:56:00,
2013-04-19 04:11:00,53.5,49.0,29.93,SSW,198,2.0,3.0,84,0.00,,,0.00,weatherlink.com 1.10,2013-04-19 08:11:00,
2013-04-19 04:26:00,53.6,49.0,29.92,SE,138,0.0,2.0,85,0.00,,,0.00,weatherlink.com 1.10,2013-04-19 08:26:00,
2013-04-19 04:41:00,53.6,50.0,29.91,SSE,150,1.0,4.0,86,0.00,,,0.00,weatherlink.com 1.10,2013-04-19 08:41:00,
2013-04-19 04:56:00,53.6,50.0,29.91,SE,143,1.0,4.0,87,0.00,,,0.00,weatherlink.com 1.10,2013-04-19 08:56:00,
2013-04-19 05:11:00,53.5,50.0,29.90,SSE,161,2.0,4.0,89,0.00,,,0.00,weatherlink.com 1.10,2013-04-19 09:11:00,
2013-04-19 05:26:00,53.4,51.0,29.88,SSE,161,2.0,4.0,90,0.00,,,0.00,weatherlink.com 1.10,2013-04-19 09:26:00,
2013-04-19 05:41:00,53.3,51.0,29.87,SSE,147,3.0,6.0,91,0.00,,,0.00,weatherlink.com 1.10,2013-04-19 09:41:00,
2013-04-19 05:57:00,53.4,51.0,29.87,SW,217,2.0,7.0,92,0.00,,,0.00,weatherlink.com 1.10,2013-04-19 09:57:00,
2013-04-19 06:12:00,53.6,52.0,29.88,SSW,194,2.0,5.0,93,0.00,,,0.00,weatherlink.com 1.10,2013-04-19 10:12:00,
2013-04-19 06:27:00,53.9,52.0,29.88,SE,146,0.0,2.0,93,0.00,,,0.00,weatherlink.com 1.10,2013-04-19 10:27:00,
2013-04-19 06:42:00,54.0,52.0,29.89,SE,142,1.0,2.0,92,0.00,,,0.00,weatherlink.com 1.10,2013-04-19 10:42:00,
2013-04-19 06:57:00,54.7,53.0,29.88,SSW,209,2.0,6.0,94,0.00,,,0.00,weatherlink.com 1.10,2013-04-19 10:57:00,
2013-04-19 07:12:00,55.4,54.0,29.88,South,182,1.0,4.0,93,0.00,,,0.00,weatherlink.com 1.10,2013-04-19 11:12:00,
2013-04-19 07:27:00,56.0,54.0,29.88,SE,146,1.0,7.0,93,0.00,,,0.00,weatherlink.com 1.10,2013-04-19 11:27:00,
2013-04-19 07:42:00,57.3,55.0,29.88,SSW,199,2.0,7.0,92,0.00,,,0.00,weatherlink.com 1.10,2013-04-19 11:42:00,
2013-04-19 07:57:00,58.5,56.0,29.87,NE,39,1.0,6.0,90,0.00,,,0.00,weatherlink.com 1.10,2013-04-19 11:57:00,
2013-04-19 08:12:00,59.1,56.0,29.86,WSW,245,3.0,8.0,88,0.00,,,0.00,weatherlink.com 1.10,2013-04-19 12:12:00,
2013-04-19 08:27:00,60.2,56.0,29.85,South,183,2.0,5.0,87,0.00,,,0.00,weatherlink.com 1.10,2013-04-19 12:27:00,
2013-04-19 08:42:00,61.6,57.0,29.86,South,183,5.0,10.0,85,0.00,,,0.00,weatherlink.com 1.10,2013-04-19 12:42:00,
2013-04-19 08:57:00,64.3,58.0,29.85,South,184,3.0,12.0,80,0.00,,,0.00,weatherlink.com 1.10,2013-04-19 12:57:00,
2013-04-19 09:12:00,65.7,58.0,29.85,South,179,3.0,13.0,77,0.00,,,0.00,weatherlink.com 1.10,2013-04-19 13:12:00,
2013-04-19 09:27:00,67.0,59.0,29.84,ENE,67,3.0,17.0,75,0.00,,,0.00,weatherlink.com 1.10,2013-04-19 13:27:00,
2013-04-19 09:42:00,69.1,59.0,29.83,South,188,8.0,16.0,70,0.00,,,0.00,weatherlink.com 1.10,2013-04-19 13:42:00,
2013-04-19 09:57:00,70.2,59.0,29.82,SE,124,8.0,14.0,68,0.00,,,0.00,weatherlink.com 1.10,2013-04-19 13:57:00,
2013-04-19 10:12:00,69.7,59.0,29.82,SE,142,5.0,13.0,69,0.00,,,0.00,weatherlink.com 1.10,2013-04-19 14:12:00,
2013-04-19 10:27:00,69.7,59.0,29.81,SW,231,2.0,14.0,68,0.00,,,0.00,weatherlink.com 1.10,2013-04-19 14:27:00,
2013-04-19 10:42:00,69.6,59.0,29.81,SSW,203,4.0,15.0,69,0.00,,,0.00,weatherlink.com 1.10,2013-04-19 14:42:00,
2013-04-19 10:57:00,70.8,59.0,29.81,SSW,198,7.0,21.0,66,0.00,,,0.00,weatherlink.com 1.10,2013-04-19 14:57:00,
2013-04-19 11:12:00,71.5,59.0,29.80,SW,216,3.0,12.0,65,0.00,,,0.00,weatherlink.com 1.10,2013-04-19 15:12:00,
2013-04-19 11:28:00,72.5,60.0,29.79,South,188,4.0,21.0,64,0.00,,,0.00,weatherlink.com 1.10,2013-04-19 15:28:00,
2013-04-19 11:43:00,72.7,59.0,29.78,SSE,155,11.0,19.0,62,0.00,,,0.00,weatherlink.com 1.10,2013-04-19 15:43:00,
2013-04-19 11:58:00,71.7,59.0,29.78,SW,224,10.0,17.0,64,0.00,,,0.00,weatherlink.com 1.10,2013-04-19 15:58:00,
2013-04-19 12:13:00,72.5,59.0,29.77,SSW,207,4.0,21.0,62,0.00,,,0.00,weatherlink.com 1.10,2013-04-19 16:13:00,
2013-04-19 12:28:00,72.7,59.0,29.76,SW,233,4.0,16.0,62,0.00,,,0.00,weatherlink.com 1.10,2013-04-19 16:28:00,
2013-04-19 12:43:00,72.8,59.0,29.75,SSW,207,4.0,14.0,62,0.00,,,0.00,weatherlink.com 1.10,2013-04-19 16:43:00,
2013-04-19 12:58:00,75.5,60.0,29.73,SW,235,3.0,16.0,58,0.00,,,0.00,weatherlink.com 1.10,2013-04-19 16:58:00,
2013-04-19 13:13:00,76.6,59.0,29.74,SSW,209,6.0,14.0,55,0.00,,,0.00,weatherlink.com 1.10,2013-04-19 17:13:00,
2013-04-19 13:28:00,75.2,59.0,29.72,SSW,203,6.0,15.0,58,0.00,,,0.00,weatherlink.com 1.10,2013-04-19 17:28:00,
2013-04-19 13:43:00,74.3,58.0,29.71,SSE,159,3.0,20.0,58,0.00,,,0.00,weatherlink.com 1.10,2013-04-19 17:43:00,
2013-04-19 13:58:00,74.5,59.0,29.70,SSW,211,5.0,18.0,58,0.00,,,0.00,weatherlink.com 1.10,2013-04-19 17:58:00,
2013-04-19 14:13:00,75.2,59.0,29.69,SSE,168,5.0,16.0,58,0.00,,,0.00,weatherlink.com 1.10,2013-04-19 18:13:00,
2013-04-19 14:28:00,77.5,59.0,29.68,SSW,193,7.0,17.0,54,0.00,,,0.00,weatherlink.com 1.10,2013-04-19 18:28:00,
2013-04-19 14:43:00,76.0,60.0,29.67,WSW,245,9.0,13.0,57,0.00,,,0.00,weatherlink.com 1.10,2013-04-19 18:43:00,
2013-04-19 14:58:00,76.5,59.0,29.66,ESE,118,11.0,18.0,55,0.00,,,0.00,weatherlink.com 1.10,2013-04-19 18:58:00,
2013-04-19 15:13:00,75.3,58.0,29.66,SE,131,7.0,21.0,56,0.00,,,0.00,weatherlink.com 1.10,2013-04-19 19:13:00,
2013-04-19 15:28:00,74.7,59.0,29.66,South,186,6.0,16.0,58,0.00,,,0.00,weatherlink.com 1.10,2013-04-19 19:28:00,
2013-04-19 15:43:00,74.3,59.0,29.65,ESE,104,8.0,12.0,60,0.00,,,0.00,weatherlink.com 1.10,2013-04-19 19:43:00,
2013-04-19 15:58:00,74.0,60.0,29.65,SE,140,6.0,16.0,61,0.00,,,0.00,weatherlink.com 1.10,2013-04-19 19:58:00,
2013-04-19 16:13:00,73.3,60.0,29.65,SSE,165,5.0,15.0,64,0.00,,,0.00,weatherlink.com 1.10,2013-04-19 20:13:00,
2013-04-19 16:28:00,71.7,61.0,29.65,SSW,197,6.0,20.0,70,0.00,,,0.00,weatherlink.com 1.10,2013-04-19 20:28:00,
2013-04-19 16:43:00,70.5,62.0,29.64,South,169,5.0,15.0,74,0.00,,,0.00,weatherlink.com 1.10,2013-04-19 20:43:00,
2013-04-19 16:58:00,70.7,62.0,29.63,SSW,204,5.0,13.0,73,0.00,,,0.00,weatherlink.com 1.10,2013-04-19 20:58:00,
2013-04-19 17:13:00,70.6,62.0,29.63,South,189,4.0,10.0,74,0.00,,,0.00,weatherlink.com 1.10,2013-04-19 21:13:00,
2013-04-19 17:28:00,70.5,62.0,29.62,SSE,161,5.0,14.0,74,0.00,,,0.00,weatherlink.com 1.10,2013-04-19 21:28:00,
2013-04-19 17:43:00,70.0,62.0,29.61,South,177,9.0,18.0,76,0.00,,,0.00,weatherlink.com 1.10,2013-04-19 21:43:00,
2013-04-19 17:58:00,69.9,62.0,29.59,ESE,123,4.0,7.0,76,0.00,,,0.00,weatherlink.com 1.10,2013-04-19 21:58:00,
2013-04-19 18:13:00,69.8,62.0,29.59,SSE,159,2.0,11.0,76,0.00,,,0.00,weatherlink.com 1.10,2013-04-19 22:13:00,
2013-04-19 18:28:00,69.7,62.0,29.59,SSE,164,3.0,13.0,77,0.00,,,0.00,weatherlink.com 1.10,2013-04-19 22:28:00,
2013-04-19 18:44:00,69.5,62.0,29.59,SE,143,3.0,17.0,78,0.00,,,0.00,weatherlink.com 1.10,2013-04-19 22:44:00,
2013-04-19 18:59:00,69.3,62.0,29.58,SE,138,4.0,15.0,78,0.00,,,0.00,weatherlink.com 1.10,2013-04-19 22:59:00,
2013-04-19 19:14:00,69.1,62.0,29.58,SSE,152,2.0,17.0,79,0.00,,,0.00,weatherlink.com 1.10,2013-04-19 23:14:00,
2013-04-19 19:29:00,69.0,62.0,29.57,South,173,8.0,13.0,79,0.00,,,0.00,weatherlink.com 1.10,2013-04-19 23:29:00,
2013-04-19 19:44:00,68.9,62.0,29.56,ESE,123,7.0,17.0,79,0.00,,,0.00,weatherlink.com 1.10,2013-04-19 23:44:00,
2013-04-19 19:59:00,68.7,62.0,29.57,SSW,213,6.0,15.0,79,0.00,,,0.00,weatherlink.com 1.10,2013-04-19 23:59:00,
2013-04-19 20:14:00,68.3,61.0,29.57,ESE,115,4.0,18.0,78,0.00,,,0.00,weatherlink.com 1.10,2013-04-20 00:14:00,
2013-04-19 20:29:00,67.9,61.0,29.57,South,185,5.0,17.0,79,0.00,,,0.00,weatherlink.com 1.10,2013-04-20 00:29:00,
2013-04-19 20:44:00,67.7,61.0,29.57,SE,143,13.0,16.0,80,0.00,,,0.00,weatherlink.com 1.10,2013-04-20 00:44:00,
2013-04-19 21:00:00,67.5,62.0,29.57,SSW,206,9.0,17.0,81,0.00,,,0.00,weatherlink.com 1.10,2013-04-20 01:00:00,
2013-04-19 21:14:00,67.4,61.0,29.56,South,176,4.0,16.0,81,0.00,,,0.00,weatherlink.com 1.10,2013-04-20 01:14:00,
2013-04-19 21:29:00,67.2,62.0,29.56,SW,233,3.0,15.0,82,0.00,,,0.00,weatherlink.com 1.10,2013-04-20 01:29:00,
2013-04-19 21:44:00,67.0,61.0,29.56,SW,227,6.0,11.0,82,0.00,,,0.00,weatherlink.com 1.10,2013-04-20 01:44:00,
2013-04-19 21:59:00,67.0,61.0,29.55,SW,217,4.0,10.0,82,0.00,,,0.00,weatherlink.com 1.10,2013-04-20 01:59:00,
2013-04-19 22:14:00,66.9,62.0,29.54,SSW,194,6.0,14.0,83,0.00,,,0.00,weatherlink.com 1.10,2013-04-20 02:14:00,
2013-04-19 22:29:00,66.8,62.0,29.54,South,185,4.0,13.0,83,0.00,,,0.00,weatherlink.com 1.10,2013-04-20 02:29:00,
2013-04-19 22:44:00,66.9,62.0,29.53,SSW,194,4.0,15.0,83,0.00,,,0.00,weatherlink.com 1.10,2013-04-20 02:44:00,
2013-04-19 23:00:00,66.5,62.0,29.52,SSW,198,5.0,14.0,86,0.00,,,0.00,weatherlink.com 1.10,2013-04-20 03:00:00,
2013-04-19 23:14:00,66.5,62.0,29.52,East,90,8.0,9.0,86,0.00,,,0.00,weatherlink.com 1.10,2013-04-20 03:14:00,
2013-04-19 23:29:00,67.1,63.0,29.50,SW,216,10.0,15.0,85,0.00,,,0.00,weatherlink.com 1.10,2013-04-20 03:29:00,
2013-04-19 23:44:00,67.8,63.0,29.50,SW,221,7.0,20.0,84,0.00,,,0.00,weatherlink.com 1.10,2013-04-20 03:44:00,
2013-04-19 23:59:00,68.1,63.0,29.51,SSE,168,7.0,13.0,83,0.00,,,0.00,weatherlink.com 1.10,2013-04-20 03:59:00,